Weather History for The Dalles, OR

Change the Weather History Date:

Friday, November 2, 2012

  Actual Average Record
Temperature  
Mean Temperature 50 °F -  
Max Temperature 59 °F 56 °F 70 °F (2010)
Min Temperature 41 °F 38 °F 16 °F (2002)
Degree Days  
Heating Degree Days 15    
Moisture  
Dew Point 45 °F    
Average Humidity 87    
Maximum Humidity 100    
Minimum Humidity 67    
Precipitation  
Precipitation 0.05 in - - ()
Sea Level Pressure  
Sea Level Pressure 30.07 in    
Wind  
Wind Speed 2 mph (North)    
Max Wind Speed 8 mph    
Max Gust Speed -    
Visibility 8 miles    
Events Rain    
Averages and records for this station are not official NWS values.
T = Trace of Precipitation, MM = Missing Value Source: NWS Daily Summary

Daily Weather History Graph

Daily Weather History Graph

Search for Another Location

Airport:

Trip Planner

Search our weather history database for the weather conditions in past years. The results will help you decide how hot, cold, wet, or windy it might be!

Date:

Astronomy

Nov. 02, 2012 Rise Set
Actual Time 7:46 AM PDT 5:49 PM PDT
Civil Twilight 7:15 AM PDT 6:20 PM PDT
Nautical Twilight 6:40 AM PDT 6:55 PM PDT
Astronomical Twilight 6:05 AM PDT 7:29 PM PDT
Moon 8:34 PM PDT (11/2) 11:17 AM PDT (11/2)
Length of Visible Light 11h 04m
Length of Day
10h 02m
Waning Gibbous, 86% of the Moon is Illuminated
Nov 2
Waning Gibbous
Nov 6
Last Quarter
Nov 13
New
Nov 20
First Quarter
Nov 28
Full

Hourly Weather History & Observations

Time (PDT) Temp. Windchill Dew Point Humidity Pressure Visibility Wind Dir Wind Speed Gust Speed Precip Events Conditions
12:06 AM 46.4 °F - 44.6 °F 93% 30.06 in 10.0 mi Calm Calm - N/A   Scattered Clouds
12:53 AM 46.0 °F - 45.0 °F 96% 30.06 in 10.0 mi Calm Calm - N/A   Partly Cloudy
1:13 AM 46.4 °F 45.2 °F 44.6 °F 93% 30.06 in 10.0 mi SE 3.5 mph - N/A   Mostly Cloudy
1:53 AM 46.9 °F - 45.0 °F 93% 30.07 in 10.0 mi East 5.8 mph - N/A   Mostly Cloudy
2:02 AM 46.4 °F - 44.6 °F 93% 30.07 in 10.0 mi Calm Calm - N/A   Overcast
2:15 AM 48.2 °F - 44.6 °F 87% 30.07 in 10.0 mi East 3.5 mph - N/A   Mostly Cloudy
2:53 AM 46.0 °F - 44.1 °F 93% 30.08 in 10.0 mi Calm Calm - N/A   Partly Cloudy
3:53 AM 44.1 °F 42.5 °F 43.0 °F 96% 30.07 in 10.0 mi ENE 3.5 mph - N/A   Clear
4:53 AM 44.1 °F 40.8 °F 41.0 °F 89% 30.08 in 10.0 mi ESE 5.8 mph - N/A   Clear
5:53 AM 42.1 °F - 41.0 °F 96% 30.09 in 10.0 mi Calm Calm - N/A   Clear
6:53 AM 43.0 °F - 39.9 °F 89% 30.09 in 8.0 mi Calm Calm - N/A   Clear
7:50 AM 42.8 °F - 39.2 °F 87% 30.08 in 2.0 mi Calm Calm - N/A   Partly Cloudy
7:53 AM 42.1 °F - 39.9 °F 92% 30.09 in 2.5 mi Calm Calm - N/A   Partly Cloudy
7:57 AM 41.0 °F - 39.2 °F 93% 30.08 in 0.8 mi Calm Calm - N/A   Scattered Clouds
8:08 AM 42.8 °F - 39.2 °F 87% 30.08 in 0.8 mi Calm Calm - N/A   Mostly Cloudy
8:13 AM 42.8 °F - 41.0 °F 93% 30.07 in 2.0 mi Calm Calm - N/A   Scattered Clouds
8:22 AM 42.8 °F - 42.8 °F 100% 30.07 in 4.0 mi Calm Calm - N/A   Partly Cloudy
8:48 AM 44.6 °F 43.1 °F 44.6 °F 100% 30.09 in 8.0 mi WNW 3.5 mph - N/A   Scattered Clouds
8:53 AM 46.0 °F 42.5 °F 44.1 °F 93% 30.11 in 7.0 mi West 6.9 mph - N/A   Scattered Clouds
9:01 AM 46.4 °F 45.2 °F 44.6 °F 93% 30.10 in 7.0 mi WNW 3.5 mph - N/A   Mostly Cloudy
9:15 AM 46.4 °F 45.2 °F 44.6 °F 93% 30.10 in 8.0 mi East 3.5 mph - N/A   Scattered Clouds
9:53 AM 48.9 °F - 46.0 °F 90% 30.10 in 10.0 mi SSE 3.5 mph - N/A   Partly Cloudy
10:53 AM 52.0 °F - 46.9 °F 83% 30.10 in 10.0 mi WNW 4.6 mph - N/A   Partly Cloudy
11:14 AM 53.6 °F - 46.4 °F 77% 30.09 in 10.0 mi North 4.6 mph - N/A   Mostly Cloudy
11:49 AM 55.4 °F - 46.4 °F 72% 30.09 in 10.0 mi Calm Calm - N/A   Scattered Clouds
11:53 AM 54.0 °F - 46.0 °F 75% 30.09 in 10.0 mi Calm Calm - N/A   Scattered Clouds
12:53 PM 55.0 °F - 46.9 °F 74% 30.07 in 10.0 mi Calm Calm - N/A   Clear
1:53 PM 59.0 °F - 48.0 °F 67% 30.04 in 10.0 mi North 3.5 mph - N/A   Clear
2:53 PM 57.9 °F - 48.0 °F 70% 30.02 in 10.0 mi Calm Calm - N/A   Clear
3:53 PM 57.9 °F - 46.9 °F 67% 30.03 in 10.0 mi WNW 3.5 mph - N/A   Overcast
4:53 PM 55.9 °F - 50.0 °F 80% 30.04 in 2.5 mi NW 5.8 mph - 0.03 in Rain Rain
5:04 PM 55.4 °F - 50.0 °F 82% 30.02 in 5.0 mi North 8.1 mph - 0.02 in Rain Light Rain
5:53 PM 54.0 °F - 50.0 °F 86% 30.02 in 10.0 mi NW 3.5 mph - 0.02 in   Overcast
6:53 PM 53.1 °F - 50.0 °F 89% 30.03 in 10.0 mi Calm Calm - N/A   Overcast
7:53 PM 54.0 °F - 50.0 °F 86% 30.03 in 10.0 mi North 5.8 mph - N/A   Overcast
8:53 PM 53.1 °F - 50.0 °F 89% 30.03 in 10.0 mi North 5.8 mph - 0.00 in   Overcast
9:53 PM 53.1 °F - 50.0 °F 89% 30.04 in 10.0 mi Calm Calm - 0.00 in Rain Light Rain
10:53 PM 52.0 °F - 50.0 °F 93% 30.03 in 10.0 mi Calm Calm - 0.00 in Rain Light Rain
11:53 PM 52.0 °F - 48.9 °F 89% 30.03 in 10.0 mi Calm Calm - 0.00 in   Overcast